This demonstration page uses our WeatherBlox Daily Observations layout. Learn more.

Left ArrowRight Arrow

Hourly Observations for December 26, 2017

Temp ( °F °C ) Dew Point ( °F °C ) Humidity (%) Winds ( mph kmh ) Pressure ( in mb ) Visibility ( mi km ) Precip ( " mm )
12:53 am 00:53 Clear with Light Wintry Mix 32 0 16 -8.9 52 52 N 5 7 30.39 1029 10 16 0.00 0.03
1:53 am 01:53 Clear 32 0 16 -8.9 52 52 Calm 30.40 1030 10 16 0.00 0.03
2:53 am 02:53 Clear 32 0 17 -8.3 54 54 Calm 30.40 1029 10 16 0.00 0.00
3:53 am 03:53 Clear 32 0 18 -7.8 56 56 NNE 3 6 30.40 1030 10 16 0.00 0.00
4:53 am 04:53 Clear 31 -0.6 20 -6.7 64 64 Calm 30.41 1030 10 16 0.00 0.00
5:53 am 05:53 Clear 29 -1.7 21 -6.1 72 72 Calm 30.43 1030 10 16 0.00 0.00
6:53 am 06:53 Clear 29 -1.7 22 -5.6 75 75 Calm 30.45 1031 10 16 0.00 0.00
7:53 am 07:53 Sunny 28 -2.2 22 -5.6 78 78 Calm 30.45 1031 10 16 0.00 0.00
8:53 am 08:53 Sunny 32 0 24 -4.4 73 73 Calm 30.45 1031 10 16 0.00 0.00
9:53 am 09:53 Sunny 40 4.4 11 -11.7 30 30 E 10 17 30.45 1031 10 16 0.00 0.00
10:53 am 10:53 Sunny 43 6.1 7 -13.9 22 22 E 8 13 30.46 1032 10 16 0.00 0.00
11:53 am 11:53 Sunny 46 7.8 11 -11.7 24 24 E 12 19 30.44 1031 10 16 0.00 0.00
12:53 pm 12:53 Sunny 48 8.9 14 -10 25 25 VRB 7 11 30.40 1029 10 16 0.00 0.00
1:53 pm 13:53 Sunny 49 9.4 16 -8.9 27 27 SSE 9 15 30.35 1028 10 16 0.00 0.00
2:53 pm 14:53 Sunny 50 10 18 -7.8 28 28 ESE 7 11 30.33 1027 10 16 0.00 0.00
3:53 pm 15:53 Sunny 49 9.4 19 -7.2 31 31 Calm 30.35 1028 10 16 0.00 0.00
4:53 pm 16:53 Sunny 49 9.4 20 -6.7 32 32 SE 5 7 30.34 1028 10 16 0.00 0.00
5:53 pm 17:53 Clear 48 8.9 21 -6.1 34 34 E 3 6 30.34 1027 10 16 0.00 0.00
6:53 pm 18:53 Clear 46 7.8 21 -6.1 37 37 E 3 6 30.35 1028 10 16 0.00 0.00
7:53 pm 19:53 Clear 39 3.9 29 -1.7 67 67 Calm 30.37 1028 10 16 0.00 0.00
8:53 pm 20:53 Clear 36 2.2 29 -1.7 76 76 Calm 30.37 1028 10 16 0.00 0.00
9:53 pm 21:53 Clear 34 1.1 28 -2.2 79 79 Calm 30.37 1028 10 16 0.00 0.00
10:53 pm 22:53 Partly Cloudy 35 1.7 28 -2.2 76 76 Calm 30.37 1029 10 16 0.00 0.00
11:53 pm 23:53 Clear 36 2.2 26 -3.3 67 67 E 6 9 30.34 1028 10 16 0.00 0.00

Powered by AerisWeather